• In Hungary
  • List of Countries
  • For 7 days
  • Water Temperature
  • Satellite Maps
  • Weather Map
  • News
  • Weather Widgets
  • user-avatar
    Login

    Hourly Weather Ahmadabad

    Today, 22 January, Monday

    Time Temperature Precipitation Wind Pressure Humidity
    00:00 +21°C° 0 mm 2 mps 754 mmHg 38%
    01:00 +21°C° 0 mm 2 mps 753 mmHg 38%
    02:00 +20°C° 0 mm 2 mps 753 mmHg 39%
    03:00 +20°C° 0 mm 2 mps 753 mmHg 40%
    04:00 +20°C° 0 mm 2 mps 753 mmHg 40%
    05:00 +19°C° 0 mm 2 mps 753 mmHg 41%
    06:00 +20°C° 0 mm 2 mps 753 mmHg 41%
    07:00 +20°C° 0 mm 2 mps 753 mmHg 41%
    08:00 +20°C° 0 mm 2 mps 754 mmHg 41%
    09:00 +24°C° 0 mm 2 mps 754 mmHg 36%
    10:00 +26°C° 0 mm 2 mps 754 mmHg 32%
    11:00 +29°C° 0 mm 2 mps 754 mmHg 27%
    12:00 +29°C° 0 mm 2 mps 753 mmHg 26%
    13:00 +30°C° 0 mm 2 mps 752 mmHg 25%
    14:00 +31°C° 0 mm 2 mps 752 mmHg 24%
    15:00 +31°C° 0 mm 3 mps 752 mmHg 25%
    16:00 +30°C° 0 mm 3 mps 751 mmHg 26%
    17:00 +30°C° 0 mm 3 mps 751 mmHg 28%
    18:00 +28°C° 0 mm 3 mps 752 mmHg 32%
    19:00 +26°C° 0 mm 4 mps 752 mmHg 35%
    20:00 +23°C° 0 mm 4 mps 752 mmHg 39%
    21:00 +22°C° 0 mm 3 mps 753 mmHg 42%
    22:00 +21°C° 0 mm 3 mps 753 mmHg 45%
    23:00 +21°C° 0 mm 3 mps 753 mmHg 48%

    Tomorrow, 23 January, Tuesday

    Time Temperature Precipitation Wind Pressure Humidity
    00:00 +20°C° 0 mm 3 mps 753 mmHg 50%
    01:00 +20°C° 0 mm 3 mps 753 mmHg 52%
    02:00 +19°C° 0 mm 2 mps 753 mmHg 55%
    03:00 +19°C° 0 mm 2 mps 753 mmHg 59%
    04:00 +18°C° 0 mm 2 mps 753 mmHg 64%
    05:00 +18°C° 0 mm 2 mps 752 mmHg 68%
    06:00 +18°C° 0 mm 2 mps 753 mmHg 69%
    07:00 +19°C° 0 mm 2 mps 753 mmHg 69%
    08:00 +20°C° 0 mm 1 mps 754 mmHg 70%
    09:00 +21°C° 0 mm 2 mps 754 mmHg 58%
    10:00 +25°C° 0 mm 3 mps 754 mmHg 46%
    11:00 +27°C° 0 mm 4 mps 754 mmHg 34%
    12:00 +28°C° 0 mm 4 mps 754 mmHg 29%
    13:00 +29°C° 0 mm 5 mps 753 mmHg 24%
    14:00 +30°C° 0 mm 5 mps 752 mmHg 20%
    15:00 +29°C° 0 mm 4 mps 752 mmHg 21%
    16:00 +28°C° 0 mm 4 mps 752 mmHg 21%
    17:00 +28°C° 0 mm 4 mps 752 mmHg 22%
    18:00 +26°C° 0 mm 3 mps 752 mmHg 24%
    19:00 +24°C° 0 mm 3 mps 753 mmHg 25%
    20:00 +21°C° 0 mm 3 mps 754 mmHg 27%
    21:00 +20°C° 0 mm 2 mps 754 mmHg 29%
    22:00 +20°C° 0 mm 2 mps 754 mmHg 30%
    23:00 +19°C° 0 mm 2 mps 754 mmHg 32%

    Day after tomorrow, 24 January, Wednesday

    Time Temperature Precipitation Wind Pressure Humidity
    00:00 +18°C° 0 mm 2 mps 754 mmHg 34%
    01:00 +18°C° 0 mm 2 mps 754 mmHg 36%
    02:00 +17°C° 0 mm 2 mps 754 mmHg 38%
    03:00 +17°C° 0 mm 2 mps 754 mmHg 39%
    04:00 +16°C° 0 mm 2 mps 754 mmHg 39%
    05:00 +16°C° 0 mm 2 mps 754 mmHg 39%
    06:00 +16°C° 0 mm 2 mps 754 mmHg 36%
    07:00 +17°C° 0 mm 2 mps 755 mmHg 34%
    08:00 +17°C° 0 mm 2 mps 755 mmHg 31%
    09:00 +20°C° 0 mm 3 mps 756 mmHg 25%
    10:00 +24°C° 0 mm 3 mps 756 mmHg 20%
    11:00 +27°C° 0 mm 3 mps 756 mmHg 14%
    12:00 +28°C° 0 mm 2 mps 755 mmHg 13%
    13:00 +29°C° 0 mm 2 mps 755 mmHg 11%
    14:00 +30°C° 0 mm 2 mps 754 mmHg 10%
    15:00 +29°C° 0 mm 2 mps 754 mmHg 11%
    16:00 +29°C° 0 mm 2 mps 753 mmHg 13%
    17:00 +28°C° 0 mm 2 mps 753 mmHg 14%
    18:00 +26°C° 0 mm 2 mps 754 mmHg 15%
    19:00 +24°C° 0 mm 2 mps 755 mmHg 17%
    20:00 +21°C° 0 mm 3 mps 755 mmHg 18%
    21:00 +20°C° 0 mm 3 mps 755 mmHg 20%
    22:00 +19°C° 0 mm 3 mps 755 mmHg 21%
    23:00 +18°C° 0 mm 3 mps 755 mmHg 22%

    25 January, Thursday

    Time Temperature Precipitation Wind Pressure Humidity
    00:00 +18°C° 0 mm 2 mps 755 mmHg 23%
    01:00 +17°C° 0 mm 2 mps 755 mmHg 24%
    02:00 +17°C° 0 mm 2 mps 754 mmHg 24%
    03:00 +16°C° 0 mm 2 mps 754 mmHg 25%
    04:00 +16°C° 0 mm 2 mps 754 mmHg 26%
    05:00 +16°C° 0 mm 2 mps 754 mmHg 27%
    06:00 +16°C° 0 mm 3 mps 754 mmHg 28%
    07:00 +17°C° 0 mm 3 mps 755 mmHg 29%
    08:00 +17°C° 0 mm 3 mps 755 mmHg 30%
    09:00 +20°C° 0 mm 3 mps 756 mmHg 26%
    10:00 +24°C° 0 mm 3 mps 756 mmHg 23%
    11:00 +27°C° 0 mm 3 mps 756 mmHg 19%
    12:00 +28°C° 0 mm 2 mps 755 mmHg 17%
    13:00 +29°C° 0 mm 2 mps 754 mmHg 15%
    14:00 +30°C° 0 mm 1 mps 753 mmHg 13%
    15:00 +30°C° 0 mm 1 mps 753 mmHg 14%
    16:00 +29°C° 0 mm 1 mps 753 mmHg 16%
    17:00 +29°C° 0 mm 1 mps 753 mmHg 17%
    18:00 +27°C° 0 mm 2 mps 753 mmHg 18%
    19:00 +25°C° 0 mm 2 mps 754 mmHg 20%
    20:00 +22°C° 0 mm 3 mps 754 mmHg 21%
    21:00 +21°C° 0 mm 3 mps 754 mmHg 22%
    22:00 +20°C° 0 mm 3 mps 754 mmHg 23%
    23:00 +19°C° 0 mm 3 mps 755 mmHg 24%

    26 January, Friday

    Time Temperature Precipitation Wind Pressure Humidity
    00:00 +19°C° 0 mm 3 mps 754 mmHg 25%
    01:00 +18°C° 0 mm 3 mps 754 mmHg 25%
    02:00 +17°C° 0 mm 3 mps 754 mmHg 26%
    03:00 +17°C° 0 mm 3 mps 754 mmHg 26%
    04:00 +17°C° 0 mm 3 mps 754 mmHg 26%
    05:00 +16°C° 0 mm 3 mps 754 mmHg 26%
    06:00 +17°C° 0 mm 3 mps 754 mmHg 27%
    07:00 +17°C° 0 mm 3 mps 755 mmHg 28%
    08:00 +18°C° 0 mm 3 mps 756 mmHg 29%
    09:00 +21°C° 0 mm 3 mps 756 mmHg 26%
    10:00 +25°C° 0 mm 3 mps 756 mmHg 23%
    11:00 +28°C° 0 mm 3 mps 756 mmHg 19%
    12:00 +29°C° 0 mm 3 mps 755 mmHg 17%
    13:00 +30°C° 0 mm 2 mps 754 mmHg 15%
    14:00 +31°C° 0 mm 1 mps 753 mmHg 13%
    15:00 +31°C° 0 mm 1 mps 753 mmHg 15%
    16:00 +30°C° 0 mm 1 mps 753 mmHg 16%
    17:00 +30°C° 0 mm 1 mps 753 mmHg 17%
    18:00 +28°C° 0 mm 1 mps 753 mmHg 18%
    19:00 +26°C° 0 mm 2 mps 754 mmHg 20%
    20:00 +23°C° 0 mm 2 mps 754 mmHg 21%
    21:00 +23°C° 0 mm 2 mps 754 mmHg 22%
    22:00 +21°C° 0 mm 3 mps 754 mmHg 23%
    23:00 +20°C° 0 mm 3 mps 754 mmHg 24%

    27 January, Saturday

    Time Temperature Precipitation Wind Pressure Humidity
    00:00 +19°C° 0 mm 3 mps 754 mmHg 25%
    01:00 +19°C° 0 mm 3 mps 754 mmHg 25%
    02:00 +18°C° 0 mm 3 mps 753 mmHg 26%
    03:00 +18°C° 0 mm 3 mps 753 mmHg 26%
    04:00 +18°C° 0 mm 3 mps 753 mmHg 26%
    05:00 +17°C° 0 mm 3 mps 753 mmHg 26%
    06:00 +18°C° 0 mm 3 mps 754 mmHg 27%
    07:00 +18°C° 0 mm 3 mps 754 mmHg 27%
    08:00 +19°C° 0 mm 3 mps 755 mmHg 27%
    09:00 +22°C° 0 mm 3 mps 755 mmHg 24%
    10:00 +26°C° 0 mm 3 mps 755 mmHg 20%
    11:00 +29°C° 0 mm 3 mps 755 mmHg 17%
    12:00 +30°C° 0 mm 2 mps 754 mmHg 15%
    13:00 +31°C° 0 mm 2 mps 753 mmHg 14%
    14:00 +32°C° 0 mm 1 mps 752 mmHg 12%
    15:00 +32°C° 0 mm 1 mps 752 mmHg 13%
    16:00 +31°C° 0 mm 1 mps 752 mmHg 14%
    17:00 +31°C° 0 mm 1 mps 752 mmHg 16%
    18:00 +28°C° 0 mm 1 mps 753 mmHg 17%
    19:00 +26°C° 0 mm 2 mps 753 mmHg 18%
    20:00 +24°C° 0 mm 2 mps 754 mmHg 19%
    21:00 +23°C° 0 mm 2 mps 754 mmHg 20%
    22:00 +21°C° 0 mm 2 mps 754 mmHg 21%
    23:00 +21°C° 0 mm 3 mps 754 mmHg 21%
    Show more